When you browse on this site, cookies collect data to enhance your experience and personalize the content and advertising you see.
Visit our Privacy Policy to learn more. By continuing to use the site, you agree to this use of cookies and data.
  • In Latvia
  • List of Countries
  • For 7 days
  • Water Temperature
  • Weather Map
  • Weather Widgets
  • user-avatar
    Login

    Hourly Weather Zelenyy Dub

    Today, 29 March, Sunday

    Time Temperature Precipitation Wind Pressure Humidity
    00:00 +9°C° 0 mm 1 mps 746 mmHg 78%
    01:00 +8°C° 0 mm 1 mps 746 mmHg 79%
    02:00 +8°C° 0 mm 1 mps 745 mmHg 80%
    03:00 +7°C° 0 mm 1 mps 745 mmHg 80%
    04:00 +7°C° 0 mm 1 mps 744 mmHg 81%
    05:00 +7°C° 0 mm 1 mps 744 mmHg 82%
    06:00 +8°C° 0 mm 1 mps 744 mmHg 79%
    07:00 +8°C° 0 mm 1 mps 743 mmHg 76%
    08:00 +9°C° 0 mm 1 mps 743 mmHg 73%
    09:00 +10°C° 0 mm 2 mps 743 mmHg 68%
    10:00 +12°C° 0 mm 2 mps 743 mmHg 62%
    11:00 +14°C° 0 mm 2 mps 742 mmHg 56%
    12:00 +14°C° 0 mm 2 mps 742 mmHg 53%
    13:00 +15°C° 0 mm 1 mps 741 mmHg 50%
    14:00 +16°C° 0 mm 1 mps 741 mmHg 47%
    15:00 +15°C° 0 mm 1 mps 741 mmHg 48%
    16:00 +15°C° 0 mm 1 mps 740 mmHg 49%
    17:00 +15°C° 0 mm 1 mps 740 mmHg 51%
    18:00 +13°C° 0.1 mm 2 mps 740 mmHg 60%
    19:00 +11°C° 0.1 mm 4 mps 740 mmHg 69%
    20:00 +8°C° 0.1 mm 5 mps 741 mmHg 77%
    21:00 +7°C° 0.5 mm 6 mps 741 mmHg 80%
    22:00 +5°C° 0.5 mm 6 mps 741 mmHg 83%
    23:00 +4°C° 0.5 mm 6 mps 741 mmHg 86%

    Tomorrow, 30 March, Monday

    Time Temperature Precipitation Wind Pressure Humidity
    00:00 +3°C° 0.3 mm 7 mps 741 mmHg 86%
    01:00 +2°C° 0.3 mm 7 mps 741 mmHg 86%
    02:00 -1°C° 0.3 mm 7 mps 742 mmHg 86%
    03:00 -2°C° 0 mm 7 mps 742 mmHg 85%
    04:00 -2°C° 0 mm 7 mps 742 mmHg 83%
    05:00 -3°C° 0 mm 7 mps 742 mmHg 82%
    06:00 -3°C° 0 mm 7 mps 743 mmHg 82%
    07:00 -4°C° 0 mm 6 mps 743 mmHg 81%
    08:00 -4°C° 0 mm 6 mps 744 mmHg 81%
    09:00 -4°C° 0.1 mm 6 mps 744 mmHg 81%
    10:00 -3°C° 0.1 mm 6 mps 744 mmHg 81%
    11:00 -3°C° 0.1 mm 6 mps 745 mmHg 80%
    12:00 -3°C° 0.2 mm 6 mps 745 mmHg 81%
    13:00 -3°C° 0.2 mm 6 mps 745 mmHg 82%
    14:00 -3°C° 0.2 mm 6 mps 746 mmHg 84%
    15:00 -3°C° 0.3 mm 6 mps 746 mmHg 85%
    16:00 -4°C° 0.3 mm 6 mps 746 mmHg 86%
    17:00 -4°C° 0.3 mm 6 mps 746 mmHg 87%
    18:00 -4°C° 0.2 mm 6 mps 747 mmHg 87%
    19:00 -4°C° 0.2 mm 5 mps 747 mmHg 87%
    20:00 -4°C° 0.2 mm 5 mps 748 mmHg 86%
    21:00 -3°C° 0 mm 4 mps 748 mmHg 83%
    22:00 -3°C° 0 mm 4 mps 748 mmHg 80%
    23:00 -2°C° 0 mm 3 mps 749 mmHg 77%

    Day after tomorrow, 31 March, Tuesday

    Time Temperature Precipitation Wind Pressure Humidity
    00:00 -4°C° 0 mm 3 mps 749 mmHg 74%
    01:00 -4°C° 0 mm 4 mps 750 mmHg 72%
    02:00 -4°C° 0 mm 4 mps 750 mmHg 70%
    03:00 -4°C° 0 mm 4 mps 751 mmHg 70%
    04:00 -5°C° 0 mm 4 mps 751 mmHg 71%
    05:00 -5°C° 0 mm 3 mps 752 mmHg 71%
    06:00 -4°C° 0 mm 4 mps 752 mmHg 65%
    07:00 -4°C° 0 mm 4 mps 753 mmHg 60%
    08:00 -3°C° 0 mm 4 mps 753 mmHg 54%
    09:00 -2°C° 0 mm 4 mps 753 mmHg 50%
    10:00 -1°C° 0 mm 4 mps 754 mmHg 45%
    11:00 0°C° 0 mm 4 mps 754 mmHg 40%
    12:00 0°C° 0 mm 4 mps 754 mmHg 39%
    13:00 +1°C° 0 mm 4 mps 754 mmHg 38%
    14:00 +1°C° 0 mm 4 mps 754 mmHg 37%
    15:00 +1°C° 0 mm 4 mps 754 mmHg 38%
    16:00 +2°C° 0 mm 3 mps 753 mmHg 40%
    17:00 +2°C° 0 mm 3 mps 753 mmHg 41%
    18:00 +1°C° 0 mm 2 mps 754 mmHg 45%
    19:00 +1°C° 0 mm 1 mps 754 mmHg 50%
    20:00 0°C° 0 mm 1 mps 754 mmHg 55%
    21:00 0°C° 0 mm 1 mps 754 mmHg 56%
    22:00 -1°C° 0 mm 1 mps 754 mmHg 56%
    23:00 -3°C° 0 mm 2 mps 754 mmHg 57%

    1 April, Wednesday

    Time Temperature Precipitation Wind Pressure Humidity
    00:00 -3°C° 0 mm 2 mps 753 mmHg 58%
    01:00 -4°C° 0 mm 3 mps 753 mmHg 59%
    02:00 -4°C° 0 mm 3 mps 753 mmHg 60%
    03:00 -4°C° 0 mm 3 mps 752 mmHg 59%
    04:00 -4°C° 0 mm 3 mps 752 mmHg 59%
    05:00 -4°C° 0 mm 4 mps 751 mmHg 58%
    06:00 -3°C° 0 mm 4 mps 751 mmHg 51%
    07:00 -2°C° 0 mm 5 mps 751 mmHg 45%
    08:00 -1°C° 0 mm 6 mps 751 mmHg 39%
    09:00 +1°C° 0 mm 6 mps 750 mmHg 36%
    10:00 0°C° 0 mm 7 mps 750 mmHg 34%
    11:00 +2°C° 0 mm 7 mps 749 mmHg 31%
    12:00 +2°C° 0 mm 8 mps 748 mmHg 30%
    13:00 +2°C° 0 mm 8 mps 748 mmHg 30%
    14:00 +2°C° 0 mm 8 mps 747 mmHg 29%
    15:00 +3°C° 0 mm 7 mps 747 mmHg 33%
    16:00 +2°C° 0 mm 7 mps 746 mmHg 37%
    17:00 +2°C° 0 mm 6 mps 746 mmHg 40%
    18:00 +1°C° 0 mm 6 mps 745 mmHg 43%
    19:00 0°C° 0 mm 5 mps 745 mmHg 46%
    20:00 0°C° 0 mm 5 mps 745 mmHg 49%
    21:00 -1°C° 0 mm 5 mps 745 mmHg 52%
    22:00 -1°C° 0 mm 5 mps 745 mmHg 54%
    23:00 -2°C° 0 mm 5 mps 744 mmHg 56%

    2 April, Thursday

    Time Temperature Precipitation Wind Pressure Humidity
    00:00 -2°C° 0 mm 5 mps 744 mmHg 58%
    01:00 -2°C° 0 mm 5 mps 744 mmHg 59%
    02:00 -2°C° 0 mm 5 mps 744 mmHg 61%
    03:00 -2°C° 0 mm 5 mps 743 mmHg 64%
    04:00 -3°C° 0 mm 4 mps 743 mmHg 67%
    05:00 -3°C° 0 mm 4 mps 743 mmHg 70%
    06:00 -2°C° 0 mm 4 mps 743 mmHg 71%
    07:00 -1°C° 0 mm 5 mps 743 mmHg 72%
    08:00 -1°C° 0 mm 5 mps 743 mmHg 73%
    09:00 0°C° 0 mm 5 mps 743 mmHg 77%
    10:00 0°C° 0 mm 5 mps 742 mmHg 80%
    11:00 +1°C° 0 mm 6 mps 742 mmHg 84%
    12:00 +1°C° 0 mm 6 mps 742 mmHg 81%
    13:00 +2°C° 0 mm 5 mps 742 mmHg 78%
    14:00 +2°C° 0 mm 5 mps 742 mmHg 75%
    15:00 +2°C° 0.1 mm 5 mps 742 mmHg 75%
    16:00 +2°C° 0.1 mm 5 mps 742 mmHg 76%
    17:00 +2°C° 0.1 mm 5 mps 742 mmHg 76%
    18:00 +1°C° 0 mm 4 mps 742 mmHg 80%
    19:00 +1°C° 0 mm 3 mps 742 mmHg 84%
    20:00 +1°C° 0 mm 2 mps 742 mmHg 88%
    21:00 +1°C° 0 mm 2 mps 742 mmHg 89%
    22:00 0°C° 0 mm 3 mps 742 mmHg 91%
    23:00 0°C° 0 mm 3 mps 742 mmHg 93%

    3 April, Friday

    Time Temperature Precipitation Wind Pressure Humidity
    00:00 0°C° 0 mm 3 mps 742 mmHg 93%
    01:00 0°C° 0 mm 3 mps 742 mmHg 94%
    02:00 0°C° 0 mm 3 mps 742 mmHg 94%
    03:00 0°C° 0 mm 3 mps 742 mmHg 94%
    04:00 -2°C° 0 mm 4 mps 742 mmHg 94%
    05:00 -2°C° 0 mm 4 mps 742 mmHg 94%
    06:00 -1°C° 0 mm 4 mps 742 mmHg 91%
    07:00 0°C° 0 mm 5 mps 742 mmHg 89%
    08:00 +1°C° 0 mm 5 mps 743 mmHg 87%
    09:00 +2°C° 0 mm 5 mps 742 mmHg 85%
    10:00 +3°C° 0 mm 6 mps 742 mmHg 83%
    11:00 +3°C° 0 mm 6 mps 742 mmHg 80%
    12:00 +4°C° 0 mm 6 mps 742 mmHg 77%
    13:00 +4°C° 0 mm 6 mps 742 mmHg 73%
    14:00 +5°C° 0 mm 6 mps 742 mmHg 69%
    15:00 +5°C° 0 mm 6 mps 742 mmHg 68%
    16:00 +5°C° 0 mm 6 mps 741 mmHg 68%
    17:00 +5°C° 0 mm 6 mps 741 mmHg 67%
    18:00 +5°C° 0 mm 6 mps 741 mmHg 69%
    19:00 +4°C° 0 mm 6 mps 741 mmHg 70%
    20:00 +4°C° 0 mm 6 mps 741 mmHg 71%
    21:00 +4°C° 0 mm 6 mps 741 mmHg 73%
    22:00 +3°C° 0 mm 6 mps 741 mmHg 74%
    23:00 +3°C° 0 mm 7 mps 741 mmHg 75%
    Show more